Temp
-13 -13 -13 -13 -13 -13 -13 -13 -13 -13 -13 -13 -13 -12 -13 -13 -13 -13 -13 -12 -13 -12 -13 -12 -12 -12 -12 -12 -12 -12 -12 -12 -12 -12 -12 -11 -12 -12 -12 -11 -11 -12 -11 -11 -12 -12 -12
-13 -13 -13 -13 -14 -14 -13 -13 -13 -13 -13 -13 -13 -13 -13 -13 -13 -13 -13 -13 -13 -13 -13 -13 -13 -13 -13 -13 -13 -13 -12 -12 -12 -12 -12 -12 -12 -12 -12 -12 -12 -12 -12 -11 -12 -12 -12
-13 -13 -13 -13 -13 -13 -14 -14 -14 -14 -14 -13 -13 -13 -13 -13 -13 -13 -13 -13 -13 -13 -13 -13 -13 -13 -13 -13 -13 -13 -13 -13 -12 -12 -12 -12 -12 -12 -12 -12 -12 -12 -11 -11 -11 -12 -12
-13 -13 -13 -13 -14 -13 -13 -14 -14 -14 -14 -14 -14 -14 -14 -14 -13 -13 -14 -14 -14 -14 -13 -13 -13 -13 -13 -14 -13 -13 -13 -13 -13 -12 -13 -13 -13 -12 -12 -12 -12 -12 -11 -12 -12 -12 -12
-14 -14 -14 -14 -14 -14 -14 -14 -14 -14 -14 -14 -15 -14 -14 -14 -14 -14 -14 -14 -14 -14 -14 -13 -13 -13 -14 -14 -14 -14 -13 -13 -13 -13 -13 -13 -13 -12 -12 -12 -12 -12 -12 -12 -12 -11 -11
-15 -15 -14 -15 -15 -15 -15 -15 -15 -15 -15 -15 -15 -15 -15 -14 -14 -14 -15 -14 -14 -14 -14 -14 -13 -14 -14 -14 -14 -14 -14 -13 -13 -13 -12 -13 -13 -13 -13 -12 -12 -12 -12 -12 -12 -12 -12
-16 -16 -16 -15 -15 -15 -15 -15 -15 -16 -15 -15 -15 -15 -15 -15 -15 -15 -15 -15 -15 -14 -14 -14 -13 -14 -14 -14 -14 -15 -14 -14 -14 -13 -13 -12 -12 -13 -13 -12 -12 -12 -12 -13 -13 -13 -12
-16 -16 -16 -16 -16 -16 -16 -16 -16 -16 -16 -15 -15 -16 -16 -16 -15 -15 -15 -15 -15 -15 -13 -14 -14 -13 -14 -14 -13 -14 -14 -14 -14 -14 -14 -13 -13 -13 -13 -13 -13 -12 -12 -13 -13 -13 -13
-17 -17 -17 -17 -17 -17 -16 -17 -16 -16 -16 -16 -16 -17 -17 -17 -16 -16 -16 -16 -16 -15 -14 -14 -14 -13 -15 -14 -13 -14 -14 -14 -14 -14 -14 -13 -13 -14 -13 -13 -13 -13 -13 -14 -13 -13 -13
-18 -18 -19 -18 -19 -19 -19 -19 -19 -18 -17 -17 -18 -19 -19 -19 -18 -17 -17 -17 -17 -16 -16 -13 -15 -14 -14 -14 -13 -14 -15 -14 -14 -14 -15 -14 -13 -14 -14 -14 -14 -14 -14 -14 -14 -13 -13
-21 -20 -20 -20 -21 -21 -20 -20 -20 -21 -20 -20 -20 -19 -20 -20 -19 -19 -19 -18 -18 -18 -17 -15 -14 -13 -14 -15 -14 -14 -15 -15 -14 -14 -15 -14 -14 -15 -14 -14 -14 -14 -15 -14 -14 -14 -13
-21 -22 -22 -22 -22 -22 -22 -21 -21 -21 -21 -20 -19 -20 -20 -20 -20 -20 -20 -20 -20 -20 -17 -15 -14 -15 -15 -15 -15 -15 -15 -15 -15 -15 -15 -14 -14 -14 -15 -15 -15 -15 -15 -15 -15 -15 -14
-23 -22 -22 -22 -22 -22 -22 -22 -22 -22 -21 -21 -21 -20 -20 -19 -20 -19 -19 -19 -20 -19 -16 -16 -16 -16 -16 -16 -16 -16 -16 -16 -16 -16 -15 -16 -15 -15 -15 -16 -15 -15 -15 -16 -15 -15 -14
-23 -23 -23 -23 -23 -23 -22 -23 -22 -23 -22 -22 -22 -22 -21 -21 -21 -20 -20 -21 -21 -17 -17 -18 -17 -17 -17 -17 -17 -17 -17 -16 -17 -17 -16 -16 -15 -16 -15 -16 -16 -17 -17 -16 -16 -16 -15
-24 -24 -24 -24 -24 -24 -24 -24 -23 -23 -23 -23 -23 -22 -21 -22 -22 -21 -22 -24 -20 -17 -18 -18 -19 -19 -18 -18 -18 -18 -18 -17 -17 -18 -18 -17 -16 -17 -17 -18 -18 -17 -17 -17 -18 -17 -17
-25 -24 -24 -24 -24 -24 -24 -24 -24 -24 -24 -24 -24 -23 -23 -24 -24 -24 -24 -24 -20 -18 -19 -20 -20 -21 -20 -21 -20 -19 -19 -18 -18 -18 -19 -18 -18 -17 -17 -18 -18 -18 -18 -18 -18 -18 -17
-26 -26 -25 -25 -25 -25 -25 -25 -25 -25 -25 -25 -25 -25 -24 -24 -25 -25 -24 -23 -22 -22 -23 -23 -21 -21 -22 -21 -21 -21 -20 -20 -20 -20 -20 -20 -20 -18 -18 -18 -18 -19 -19 -19 -19 -19 -18
-27 -29 -27 -26 -26 -26 -26 -26 -26 -25 -26 -25 -25 -25 -25 -25 -25 -25 -24 -23 -23 -23 -23 -23 -22 -22 -22 -22 -22 -22 -21 -21 -22 -21 -21 -21 -21 -20 -19 -20 -19 -19 -19 -20 -20 -19 -18
-30 -29 -28 -27 -27 -26 -27 -27 -27 -26 -26 -26 -26 -25 -25 -25 -26 -25 -25 -24 -24 -24 -24 -24 -24 -24 -23 -23 -23 -22 -22 -22 -22 -22 -22 -22 -22 -21 -20 -20 -19 -20 -21 -19 -20 -20 -19
-31 -30 -30 -29 -29 -28 -28 -28 -28 -28 -27 -27 -27 -26 -26 -26 -26 -26 -25 -25 -25 -24 -24 -25 -24 -24 -24 -24 -24 -23 -22 -22 -23 -23 -23 -23 -23 -22 -21 -20 -21 -21 -20 -20 -20 -20 -19
-31 -31 -31 -31 -31 -31 -31 -30 -30 -29 -28 -28 -28 -27 -27 -26 -26 -26 -26 -25 -25 -25 -25 -25 -25 -24 -24 -25 -25 -24 -23 -24 -24 -24 -24 -24 -23 -23 -22 -22 -21 -21 -20 -20 -20 -20 -21
-32 -32 -32 -32 -32 -32 -32 -31 -31 -31 -30 -30 -29 -28 -27 -27 -27 -27 -27 -26 -26 -25 -25 -25 -25 -25 -26 -26 -25 -25 -25 -25 -24 -24 -24 -24 -24 -23 -23 -22 -22 -22 -22 -20 -21 -21 -21
-33 -33 -33 -33 -32 -33 -32 -32 -31 -31 -31 -31 -30 -29 -28 -28 -28 -28 -28 -27 -27 -27 -26 -26 -26 -26 -26 -25 -26 -26 -25 -25 -25 -25 -24 -24 -24 -23 -23 -22 -22 -23 -21 -22 -22 -22 -21
-33 -33 -33 -33 -33 -32 -32 -32 -31 -31 -31 -31 -30 -30 -30 -28 -28 -28 -28 -28 -28 -27 -27 -27 -27 -28 -26 -27 -27 -27 -26 -26 -26 -25 -25 -24 -24 -24 -24 -23 -23 -22 -22 -22 -22 -22 -22
-33 -33 -34 -33 -33 -33 -32 -32 -32 -31 -31 -31 -30 -30 -30 -29 -29 -28 -28 -28 -28 -28 -28 -27 -27 -27 -28 -28 -28 -28 -28 -27 -26 -25 -25 -25 -24 -24 -24 -23 -23 -23 -22 -23 -22 -22 -22
-34 -33 -34 -33 -33 -32 -32 -31 -31 -31 -31 -32 -31 -31 -30 -31 -29 -29 -29 -29 -28 -29 -29 -28 -29 -29 -29 -29 -29 -28 -28 -28 -27 -26 -25 -25 -25 -25 -24 -24 -24 -23 -23 -23 -23 -22 -23
-33 -33 -32 -32 -32 -31 -31 -31 -31 -31 -31 -31 -31 -30 -31 -30 -29 -30 -29 -29 -30 -30 -29 -29 -29 -29 -29 -29 -29 -28 -28 -27 -27 -26 -26 -26 -26 -25 -25 -25 -24 -24 -23 -23 -23 -23 -23
-32 -32 -32 -32 -31 -31 -31 -31 -30 -31 -31 -31 -31 -31 -31 -30 -29 -30 -31 -30 -30 -29 -29 -29 -30 -30 -30 -29 -29 -27 -27 -27 -27 -26 -26 -26 -26 -25 -25 -24 -24 -24 -24 -24 -23 -23 -23
-31 -31 -31 -30 -30 -30 -30 -30 -30 -30 -30 -31 -30 -31 -31 -30 -30 -32 -32 -31 -31 -31 -31 -30 -29 -29 -29 -28 -28 -28 -27 -27 -27 -26 -26 -26 -26 -25 -25 -25 -24 -24 -24 -23 -23 -23 -23
Height
5750 5750 5752 5754 5756 5759 5760 5762 5766 5767 5768 5768 5770 5772 5774 5775 5776 5778 5779 5781 5781 5782 5783 5785 5784 5784 5786 5788 5787 5789 5790 5789 5789 5790 5791 5791 5791 5791 5790 5790 5791 5794 5796 5797 5797 5798 5798
5737 5739 5741 5743 5746 5744 5748 5753 5754 5756 5758 5760 5761 5764 5765 5765 5766 5767 5770 5770 5771 5772 5774 5777 5777 5777 5779 5783 5778 5781 5781 5781 5782 5783 5783 5784 5783 5783 5784 5783 5783 5786 5788 5788 5789 5789 5790
5725 5726 5728 5730 5732 5734 5736 5739 5741 5744 5745 5749 5752 5753 5755 5756 5757 5758 5759 5760 5761 5763 5764 5766 5770 5770 5773 5773 5772 5774 5775 5774 5775 5776 5775 5777 5777 5777 5778 5777 5777 5778 5781 5782 5784 5783 5783
5711 5714 5716 5717 5718 5720 5723 5726 5729 5732 5735 5736 5737 5741 5743 5745 5748 5749 5748 5751 5751 5754 5754 5758 5761 5762 5766 5761 5764 5767 5770 5768 5766 5768 5770 5769 5771 5770 5771 5772 5772 5773 5775 5777 5778 5776 5777
5697 5698 5701 5703 5705 5708 5709 5711 5714 5718 5721 5724 5725 5728 5730 5733 5735 5737 5740 5741 5742 5745 5747 5748 5753 5754 5760 5756 5757 5759 5763 5763 5762 5762 5763 5763 5764 5766 5766 5766 5765 5768 5767 5769 5769 5769 5770
5679 5682 5685 5687 5689 5691 5694 5696 5699 5702 5706 5709 5713 5715 5718 5720 5723 5726 5729 5731 5733 5737 5737 5741 5743 5748 5751 5752 5750 5752 5754 5756 5758 5757 5756 5758 5759 5762 5762 5759 5758 5758 5757 5761 5765 5765 5763
5662 5664 5667 5671 5673 5675 5679 5682 5684 5687 5691 5695 5697 5701 5704 5708 5711 5713 5717 5720 5724 5726 5728 5731 5734 5739 5741 5745 5746 5744 5746 5748 5750 5752 5752 5750 5754 5757 5754 5754 5756 5756 5754 5755 5759 5758 5758
5643 5645 5649 5652 5655 5659 5662 5665 5668 5672 5676 5680 5683 5686 5689 5693 5698 5700 5703 5707 5710 5713 5717 5721 5723 5728 5733 5735 5736 5737 5738 5740 5742 5744 5744 5747 5748 5748 5748 5748 5750 5751 5751 5750 5750 5749 5749
5623 5625 5628 5633 5636 5640 5644 5647 5652 5655 5658 5662 5667 5670 5675 5678 5682 5686 5690 5692 5696 5699 5702 5713 5713 5717 5723 5720 5725 5730 5727 5730 5733 5735 5737 5739 5740 5741 5742 5741 5742 5743 5744 5746 5744 5741 5741
5603 5606 5610 5614 5618 5621 5625 5630 5634 5639 5642 5645 5648 5654 5659 5664 5670 5672 5675 5677 5681 5685 5687 5699 5702 5705 5706 5709 5712 5720 5721 5721 5725 5726 5726 5729 5732 5734 5734 5733 5733 5734 5735 5735 5736 5736 5737
5584 5588 5592 5596 5600 5605 5609 5613 5618 5622 5626 5630 5636 5639 5643 5648 5653 5657 5661 5663 5665 5670 5672 5686 5688 5691 5694 5699 5703 5705 5708 5707 5712 5716 5718 5721 5720 5724 5723 5724 5724 5727 5726 5725 5726 5728 5729
5567 5572 5577 5580 5585 5588 5592 5596 5601 5605 5610 5616 5620 5626 5630 5635 5638 5640 5644 5647 5650 5654 5660 5670 5674 5673 5679 5683 5689 5691 5694 5698 5701 5701 5705 5710 5710 5711 5716 5717 5717 5716 5715 5716 5716 5717 5718
5550 5554 5559 5564 5567 5572 5577 5581 5585 5589 5594 5597 5602 5606 5613 5619 5623 5624 5628 5629 5631 5638 5660 5659 5663 5658 5663 5669 5674 5679 5683 5684 5688 5689 5691 5695 5699 5701 5702 5702 5704 5706 5706 5706 5706 5704 5709
5532 5537 5541 5545 5550 5555 5559 5564 5569 5573 5576 5580 5584 5590 5595 5601 5605 5606 5609 5607 5608 5638 5644 5641 5644 5644 5650 5653 5658 5664 5668 5673 5674 5676 5679 5680 5684 5688 5693 5691 5692 5692 5693 5693 5690 5693 5698
5512 5517 5522 5527 5533 5538 5542 5547 5552 5557 5560 5563 5565 5572 5580 5584 5586 5588 5589 5585 5601 5626 5625 5624 5627 5628 5635 5639 5643 5648 5653 5658 5661 5662 5664 5666 5670 5672 5676 5677 5678 5682 5679 5685 5680 5681 5681
5489 5495 5501 5508 5514 5518 5524 5530 5536 5541 5545 5545 5551 5558 5568 5566 5569 5569 5569 5573 5595 5607 5606 5607 5613 5616 5622 5626 5627 5632 5638 5642 5644 5648 5648 5650 5653 5659 5661 5663 5665 5667 5671 5669 5667 5667 5668
5468 5470 5477 5486 5493 5499 5506 5512 5518 5523 5527 5529 5535 5541 5554 5552 5552 5548 5555 5571 5584 5590 5592 5593 5598 5601 5608 5612 5614 5620 5622 5626 5629 5631 5634 5638 5638 5647 5648 5649 5654 5657 5656 5656 5657 5657 5657
5451 5451 5456 5462 5472 5478 5485 5492 5499 5505 5507 5510 5520 5527 5537 5535 5534 5539 5548 5564 5572 5576 5577 5580 5583 5586 5593 5600 5602 5605 5609 5613 5616 5618 5623 5624 5625 5631 5637 5637 5640 5640 5644 5644 5643 5646 5646
5434 5431 5435 5443 5450 5459 5467 5473 5479 5486 5486 5495 5500 5511 5518 5518 5517 5527 5540 5549 5554 5562 5564 5566 5568 5575 5581 5584 5586 5592 5598 5607 5606 5607 5610 5612 5615 5619 5622 5625 5626 5627 5633 5634 5634 5635 5635
5412 5416 5420 5427 5434 5441 5447 5455 5462 5468 5471 5479 5482 5490 5499 5502 5506 5514 5527 5534 5536 5549 5549 5554 5559 5563 5566 5571 5575 5581 5589 5592 5595 5596 5597 5599 5601 5607 5614 5615 5616 5616 5620 5621 5620 5619 5627
5394 5399 5403 5411 5420 5426 5434 5445 5447 5453 5457 5462 5463 5472 5484 5485 5495 5502 5509 5520 5524 5533 5539 5542 5546 5556 5558 5557 5563 5572 5577 5578 5582 5584 5585 5585 5589 5595 5599 5603 5605 5604 5607 5610 5608 5614 5609
5377 5383 5389 5397 5405 5411 5421 5431 5437 5439 5444 5444 5449 5459 5468 5472 5485 5485 5492 5500 5512 5523 5527 5531 5530 5545 5541 5544 5555 5557 5556 5561 5567 5572 5573 5576 5578 5582 5586 5593 5591 5591 5596 5598 5599 5602 5600
5367 5371 5376 5382 5392 5399 5407 5417 5423 5428 5432 5431 5439 5444 5450 5459 5470 5472 5483 5490 5497 5506 5510 5516 5520 5523 5523 5541 5536 5537 5542 5548 5552 5556 5562 5565 5569 5572 5574 5582 5580 5576 5590 5588 5590 5591 5592
5359 5363 5367 5373 5379 5386 5393 5401 5409 5414 5418 5421 5429 5434 5437 5446 5450 5462 5469 5474 5480 5488 5493 5499 5502 5505 5522 5520 5522 5524 5529 5533 5537 5547 5552 5556 5561 5563 5565 5572 5569 5575 5579 5580 5580 5583 5582
5351 5355 5359 5363 5368 5374 5380 5387 5393 5399 5404 5407 5414 5419 5424 5429 5437 5445 5452 5456 5463 5472 5476 5484 5491 5495 5500 5506 5509 5513 5517 5520 5530 5538 5542 5548 5551 5554 5556 5560 5561 5566 5569 5571 5568 5577 5573
5344 5347 5351 5355 5359 5364 5370 5375 5381 5387 5393 5397 5402 5407 5411 5414 5422 5430 5436 5443 5449 5454 5459 5469 5479 5485 5491 5496 5499 5502 5506 5515 5520 5527 5534 5538 5541 5543 5548 5550 5552 5559 5563 5560 5561 5566 5561
5338 5342 5346 5350 5354 5359 5364 5369 5374 5379 5384 5388 5392 5397 5400 5403 5413 5419 5426 5433 5436 5443 5449 5458 5466 5473 5479 5486 5492 5497 5503 5508 5510 5516 5525 5528 5531 5535 5540 5542 5546 5554 5553 5552 5554 5557 5554
5336 5339 5343 5347 5351 5356 5360 5365 5369 5374 5378 5380 5386 5389 5393 5397 5404 5411 5416 5422 5429 5435 5443 5451 5454 5464 5473 5478 5486 5491 5496 5502 5505 5511 5516 5522 5524 5529 5533 5537 5542 5545 5544 5545 5545 5545 5545
5335 5339 5343 5347 5351 5355 5359 5363 5367 5371 5374 5377 5380 5384 5387 5390 5399 5400 5405 5411 5419 5426 5432 5438 5451 5459 5468 5474 5480 5487 5492 5496 5502 5505 5510 5514 5519 5522 5528 5531 5533 5536 5535 5536 5537 5538 5537
Wind_Speed
52 51 51 51 50 50 48 47 51 51 50 47 48 48 48 46 48 47 43 45 44 43 41 41 37 36 34 31 37 37 35 35 34 34 36 34 33 31 32 33 34 32 32 30 31 33 34
54 53 52 52 54 53 53 53 52 51 50 49 48 51 51 49 49 47 49 49 49 44 44 45 41 39 36 31 38 34 37 39 38 35 36 36 33 29 28 29 31 28 28 30 31 31 32
57 56 57 57 57 57 55 54 54 53 52 52 53 53 54 54 52 52 53 52 49 42 42 40 40 43 40 34 35 37 34 35 36 35 34 33 30 29 27 29 25 24 25 27 28 29 29
62 61 60 59 60 59 58 56 55 56 57 55 54 54 54 54 55 56 49 45 42 43 42 40 41 40 31 36 35 35 32 32 34 31 29 31 30 31 28 28 27 25 24 24 26 27 28
69 67 65 64 65 64 61 60 60 59 59 60 58 57 57 56 55 51 47 43 42 40 41 41 39 38 30 32 32 32 29 29 32 29 27 28 29 29 28 25 29 26 25 26 28 27 26
73 73 72 69 68 68 67 64 64 64 63 61 61 59 57 55 52 50 47 46 43 41 43 39 38 37 33 32 29 32 32 30 31 29 26 26 27 26 28 31 30 32 32 27 28 27 26
78 77 78 75 73 72 72 71 69 68 67 66 63 61 59 56 53 50 51 50 47 47 47 42 44 38 37 34 34 33 34 32 31 30 27 29 27 22 32 35 32 30 31 26 23 27 30
81 78 78 77 77 76 74 74 74 73 71 71 68 64 61 59 59 57 55 54 53 52 54 48 46 47 40 39 40 37 37 37 35 32 33 32 29 30 32 34 32 33 33 25 26 31 33
80 79 78 79 77 77 77 76 74 74 75 75 71 65 63 63 63 62 60 59 58 59 60 56 52 50 45 50 45 40 44 41 40 40 38 36 33 35 35 35 34 31 32 28 32 33 34
78 76 75 76 76 74 73 73 70 68 69 73 68 67 65 66 66 64 63 63 61 60 63 60 56 54 55 53 52 48 45 47 43 42 42 43 40 35 36 39 37 35 31 34 37 38 37
69 69 69 71 69 69 71 71 69 66 64 61 65 72 64 64 64 64 63 63 62 63 64 61 61 59 58 56 54 55 52 52 50 46 45 46 47 41 42 42 41 40 37 39 38 39 41
68 66 67 67 67 66 67 67 68 69 68 69 70 67 67 69 66 71 65 60 61 62 68 65 63 63 62 59 54 54 55 52 51 53 50 48 51 51 48 49 48 47 48 45 44 43 44
72 72 70 68 68 67 64 66 66 67 69 69 71 70 70 69 66 69 72 72 71 71 68 69 66 68 67 65 61 56 54 55 50 49 51 49 50 51 52 51 51 50 51 50 50 51 50
75 73 72 72 70 68 66 62 59 64 66 66 67 71 70 70 72 73 71 69 70 65 64 65 67 71 68 66 63 57 56 55 54 51 52 54 54 51 49 49 48 45 48 51 54 53 51
79 77 76 74 73 72 70 68 66 63 60 59 57 62 63 64 66 70 66 60 70 64 68 68 65 66 65 63 62 58 55 55 52 52 52 54 57 54 49 46 45 47 51 47 48 51 54
77 80 79 78 77 75 73 72 70 65 63 64 61 58 53 55 54 56 60 63 68 67 67 66 64 61 62 60 60 58 55 55 54 52 49 51 55 56 57 51 50 50 48 49 50 53 55
76 78 80 76 75 75 76 75 73 70 67 68 65 61 56 57 60 65 64 57 53 55 56 60 62 61 57 57 58 57 58 56 55 54 52 49 50 53 52 55 54 52 52 53 52 51 54
71 67 76 81 77 76 75 74 75 74 73 72 69 66 62 64 66 64 62 56 53 54 58 59 59 61 57 54 56 58 60 58 54 53 49 47 46 49 49 48 48 49 48 48 51 53 53
58 52 70 73 74 76 72 72 73 73 75 74 73 71 68 68 69 66 60 57 56 52 52 54 54 53 54 54 55 56 55 50 50 49 48 48 43 41 38 37 46 47 45 51 50 52 56
63 72 71 68 67 64 60 63 67 69 70 69 71 73 71 71 71 68 63 61 62 57 57 55 55 55 56 55 51 53 52 48 42 42 43 43 45 43 50 51 48 47 46 49 45 49 51
61 69 61 66 57 52 51 43 51 60 63 66 68 69 69 71 68 68 66 62 60 59 57 57 59 56 55 56 51 49 46 45 41 39 40 44 45 45 44 45 45 55 57 53 59 54 53
40 48 67 64 50 47 49 46 42 53 55 57 63 66 65 67 63 62 63 63 59 56 57 57 60 53 52 53 51 49 48 47 44 41 41 43 45 45 43 40 44 44 45 45 43 46 42
39 41 46 49 60 57 49 49 56 56 50 52 54 59 61 58 57 59 58 57 57 54 56 55 54 53 55 50 48 50 51 50 47 47 46 45 45 47 48 49 50 53 39 47 47 48 44
36 37 42 49 51 54 54 48 52 56 57 59 59 57 56 57 56 53 52 52 52 51 52 51 52 53 48 48 50 50 47 49 51 50 49 47 44 46 47 43 41 33 37 42 39 36 40
34 35 36 40 42 40 40 41 45 49 53 56 56 57 57 58 57 55 55 56 55 53 54 54 52 47 46 47 43 42 46 46 47 46 46 44 42 44 43 49 44 31 37 38 40 38 40
31 32 31 28 29 32 34 36 38 42 45 49 50 51 51 52 50 48 48 49 47 48 49 47 44 42 43 37 37 41 42 37 39 44 42 42 41 45 45 46 44 32 35 31 31 30 30
19 20 20 20 21 22 24 26 28 31 34 36 39 39 42 43 38 39 36 34 36 34 33 33 42 37 39 38 39 35 33 32 34 37 39 40 39 40 41 41 40 33 30 29 26 26 27
16 15 15 16 16 16 17 17 18 20 23 28 31 35 37 39 38 36 37 37 34 36 34 35 44 44 37 35 39 39 28 30 29 32 36 35 35 34 33 34 31 28 29 27 28 29 29
12 12 12 12 12 13 13 13 12 11 12 15 15 19 25 27 18 26 27 33 35 38 38 40 36 36 29 17 41 38 30 33 26 25 26 25 26 28 29 28 27 26 25 34 34 36 35
Wind_Direction
259 259 260 263 262 266 263 262 266 268 267 266 264 266 266 264 265 270 274 276 276 273 271 268 264 264 266 271 274 279 277 272 270 271 269 269 266 265 267 268 264 260 259 257 257 260 262
258 259 260 260 262 260 262 264 264 263 264 264 264 266 265 267 268 270 275 276 276 271 269 267 262 264 265 272 271 280 277 271 268 270 272 270 266 266 263 262 264 265 264 264 262 262 263
260 259 259 259 261 262 262 261 262 262 261 262 263 263 264 266 269 271 271 273 272 263 265 265 265 266 266 264 269 274 273 273 269 266 268 267 267 265 258 257 258 260 260 260 262 261 265
259 261 260 260 260 260 261 260 261 262 264 264 266 265 263 265 267 270 268 269 266 263 262 263 267 265 264 257 262 265 271 271 265 264 266 270 266 260 254 254 259 255 257 260 257 257 257
261 259 258 259 257 259 258 256 257 260 261 265 266 265 264 267 267 265 263 261 261 260 260 260 261 263 260 259 259 262 266 265 272 270 267 267 266 257 256 250 254 254 256 253 249 255 263
259 258 259 257 256 257 256 256 254 257 259 260 264 264 263 263 259 259 256 255 256 257 256 257 258 259 259 256 257 259 260 263 266 266 269 269 262 264 261 250 243 244 246 253 260 264 260
260 260 259 258 258 256 256 258 256 256 257 259 259 261 260 257 255 252 252 253 254 253 254 254 258 255 260 258 257 253 256 256 257 260 265 262 264 265 259 258 258 255 258 258 258 260 260
260 259 260 259 259 258 256 256 257 258 258 257 256 255 253 253 253 251 251 252 253 253 253 254 255 259 259 261 255 255 253 256 253 255 258 262 265 258 257 262 266 264 262 257 251 255 256
260 260 260 260 260 259 256 255 256 255 256 255 252 250 250 250 251 251 252 253 253 255 255 252 255 254 260 259 256 253 256 253 255 256 259 259 260 257 257 257 259 264 268 266 259 254 256
260 260 260 261 261 259 259 259 259 257 257 253 251 249 248 249 249 252 253 254 255 256 256 253 254 252 255 255 258 264 259 261 256 259 258 261 260 256 253 256 259 260 265 263 262 262 261
258 258 258 258 258 258 260 260 256 254 255 258 259 249 246 248 251 252 254 256 256 258 258 254 256 257 254 256 258 260 258 258 258 256 255 260 262 252 251 254 257 261 259 261 260 263 263
257 254 256 258 259 259 259 260 260 260 259 259 256 257 255 254 253 253 253 256 257 255 255 254 256 260 262 260 258 258 259 259 259 260 258 256 257 261 256 255 258 260 264 265 264 263 260
261 263 261 256 255 253 254 253 253 255 256 259 258 258 258 257 259 259 257 256 254 255 259 261 260 261 264 264 262 259 259 260 261 258 257 258 254 255 258 259 258 259 263 267 266 262 264
257 257 258 259 260 261 260 258 252 251 253 250 255 256 256 256 256 255 253 252 251 260 262 261 265 266 263 263 263 261 258 257 259 260 259 258 257 255 256 259 264 262 257 258 261 263 263
257 256 255 255 256 256 257 259 260 259 257 254 251 252 251 249 250 249 249 246 255 260 261 259 258 261 262 261 261 260 258 257 255 258 258 260 257 256 253 252 253 256 258 263 263 262 263
257 255 254 253 253 254 254 255 257 256 254 257 259 256 252 250 251 251 249 248 250 254 253 253 252 252 255 256 260 259 257 256 254 250 254 254 255 254 256 253 247 249 255 257 258 260 263
253 254 255 253 252 252 251 252 252 252 252 251 251 253 253 254 252 254 252 252 253 250 253 255 255 255 253 252 252 255 258 257 256 257 256 254 255 252 256 256 256 252 252 257 261 262 266
253 255 251 252 249 248 248 248 249 248 249 249 249 249 251 252 254 254 256 257 253 250 251 252 253 254 255 254 255 255 253 255 260 261 264 264 262 260 259 262 260 259 258 256 253 255 259
231 232 247 252 252 251 248 247 247 246 247 248 248 247 247 249 251 254 255 259 259 253 254 256 256 255 256 256 257 256 257 258 260 260 259 258 257 248 251 253 254 255 257 262 265 259 260
231 234 245 248 252 252 250 246 246 246 249 248 249 248 246 248 250 251 252 252 253 252 251 252 253 253 254 256 257 258 257 258 258 259 260 257 257 253 251 256 257 257 255 255 254 261 262
231 227 237 247 244 248 247 235 247 243 245 247 249 248 247 249 251 253 252 252 251 251 253 254 254 254 257 258 257 259 260 256 253 255 257 256 255 255 258 258 259 260 260 262 268 266 273
232 237 234 235 235 240 238 230 227 243 243 248 248 248 249 248 246 250 251 250 250 251 252 252 254 253 255 255 258 256 256 257 258 256 255 253 257 256 243 246 254 261 264 261 271 274 266
231 235 235 232 235 240 233 220 222 229 236 238 246 249 250 250 248 247 250 255 253 251 248 250 254 250 249 254 250 251 251 252 254 253 252 252 254 255 251 243 254 265 261 262 262 267 264
230 230 232 232 235 232 237 236 232 235 238 244 247 249 251 252 251 251 250 250 250 250 249 246 248 251 251 249 249 250 250 247 245 245 247 249 251 252 252 247 253 268 262 269 265 256 269
234 232 232 234 236 233 231 229 230 233 237 241 246 247 250 252 252 251 251 251 250 250 249 249 248 251 250 250 244 246 248 246 246 245 244 246 246 250 249 241 247 275 263 258 269 264 269
234 230 226 228 227 228 230 232 233 236 238 240 244 246 248 250 251 250 248 248 248 246 243 241 230 229 241 233 230 234 241 245 241 237 238 241 245 246 244 249 259 261 273 267 267 273 274
220 218 221 221 222 223 224 227 230 233 238 239 243 243 242 244 242 241 240 240 238 233 228 220 215 209 224 228 227 235 244 240 240 232 231 236 241 247 248 254 258 260 262 265 259 264 272
219 216 213 211 213 214 216 222 225 232 237 242 244 243 246 248 247 242 238 233 231 227 223 217 218 211 218 224 218 226 230 231 229 226 229 237 240 242 246 252 253 260 263 267 268 269 274
197 182 175 176 180 188 195 199 205 233 243 250 247 240 238 240 234 225 216 215 216 212 216 208 189 194 201 211 218 224 228 227 228 233 228 238 237 237 240 247 245 258 256 255 258 259 275